Location: Kouchibouguac National Park
(46.8081°N, 64.9088°W)
Time: 04:02:10
(UTC-03:00)

Amateur Radio Satellites - All Passes

Search period start: 30 July 2014 03:32
Search period end: 31 July 2014 03:32
Location: Kouchibouguac National Park, 46.8081°N, 64.9088°W

Satellite Date Start Highest point End Downlink Frequencies (MHz)
Time Altitude Azimuth
PCSat 30 Jul 03:35:41 03:39:33 19° 326° (NW) 03:43:26 145.825 MHz
Oscar 16 30 Jul 03:45:12 03:50:09 47° 291° (WNW) 03:55:04 437.025 USB, Beacon 2401.1428
OPAL 30 Jul 03:48:15 03:52:59 48° 66° (ENE) 03:57:45 ?
AO-40 30 Jul 03:54:29 05:01:18 14° 227° (SW) 06:39:07 Beacon 2401.320
ISS 30 Jul 03:58:27 04:01:39 39° 10° (N) 04:04:50 145.800 FM
ITAMSAT 1 30 Jul 04:08:04 04:13:13 64° 289° (WNW) 04:18:18 435.822 SSB
Oscar 10/S400 30 Jul 04:08:21 05:10:49 47° 212° (SSW) 11:23:18 145.825 - 145.975 CW/USB, Beacon 145.810 USB
Uribyol 2 30 Jul 04:27:29 04:32:19 42° 293° (WNW) 04:37:08 436.500 FM
AO-27 30 Jul 04:27:46 04:32:40 43° 293° (WNW) 04:37:32 436.795 MHz FM
TMSAT-1 30 Jul 04:30:40 04:35:59 70° 102° (ESE) 04:41:15 436.925 FM
MaSat-1 30 Jul 04:33:03 04:34:50 12° 31° (NNE) 04:36:37 437.345 MHz
AO-7 30 Jul 04:42:36 04:49:29 28° 93° (E) 04:56:18 29.400 - 29.500 MHz
JAS-1B 30 Jul 04:42:38 04:52:10 74° 291° (WNW) 05:00:20 435.800 - 435.900 CW/SSB
Sapphire 30 Jul 04:49:49 04:50:59 11° 342° (NNW) 04:52:08 437.095 MHz 1200 baud AX-25 AFSK
KITSAT 1 30 Jul 04:55:50 04:59:06 13° 97° (E) 05:02:22 435.175 FM
Gurwin Techsat 1B 30 Jul 04:55:54 05:01:06 56° 290° (WNW) 05:06:16 435.225 FM
Oscar 19 30 Jul 04:57:32 05:00:12 14° 305° (NW) 05:02:51 437.125 CW, 437.150 USB
AO-Echo 30 Jul 05:04:48 05:08:32 21° 300° (WNW) 05:12:10 ?
Uosat F 30 Jul 05:23:02 05:27:55 49° 100° (E) 05:32:45 435.120 FM
OPAL 30 Jul 05:28:10 05:32:07 24° 264° (W) 05:36:06 ?
ISS 30 Jul 05:35:11 05:38:33 71° 210° (SSW) 05:41:54 145.800 FM
ITAMSAT 1 30 Jul 05:50:23 05:51:43 11° 308° (NW) 05:53:02 435.822 SSB
MaSat-1 30 Jul 06:08:34 06:13:37 42° 52° (NE) 06:18:29 437.345 MHz
TMSAT-1 30 Jul 06:11:39 06:15:22 20° 301° (WNW) 06:19:05 436.925 FM
STRAND 1 30 Jul 06:13:32 06:18:00 31° 64° (ENE) 06:22:28 ?
JAS-1B 30 Jul 06:34:11 06:40:59 23° 314° (NW) 06:47:16 435.800 - 435.900 CW/SSB
AO-7 30 Jul 06:34:42 06:43:01 74° 293° (WNW) 06:51:16 29.400 - 29.500 MHz
KITSAT 1 30 Jul 06:44:56 06:52:53 63° 117° (ESE) 07:00:51 435.175 FM
Uosat F 30 Jul 07:02:23 07:06:25 25° 298° (WNW) 07:10:26 435.120 FM
Hamsat 30 Jul 07:02:46 07:06:55 44° 98° (E) 07:11:03 145.90 MHz
JAS-2 30 Jul 07:04:35 07:10:05 36° 94° (E) 07:15:03 435.800 - 435.900 CW/SSB, 435.910 FM
PCSat 30 Jul 07:09:59 07:11:33 11° 19° (NNE) 07:13:06 145.825 MHz
ISS 30 Jul 07:13:15 07:14:45 13° 227° (SW) 07:16:15 145.800 FM
Saudisat 1A 30 Jul 07:42:15 07:46:16 35° 118° (ESE) 07:50:18 436.775 MHz
MaSat-1 30 Jul 07:46:07 07:50:53 35° 252° (WSW) 07:55:26 437.345 MHz
STRAND 1 30 Jul 07:52:16 07:57:04 40° 262° (W) 08:01:55 ?
SO-67 30 Jul 08:16:08 08:19:29 43° 99° (E) 08:22:48 435.3500 MHz FM
Sapphire 30 Jul 08:18:54 08:22:56 21° 35° (NE) 08:26:58 437.095 MHz 1200 baud AX-25 AFSK
AO-7 30 Jul 08:28:43 08:34:31 22° 315° (NW) 08:40:18 29.400 - 29.500 MHz
Hamsat 30 Jul 08:39:23 08:42:37 21° 296° (WNW) 08:45:52 145.90 MHz
KITSAT 1 30 Jul 08:41:08 08:48:43 42° 320° (NW) 08:56:20 435.175 FM
JAS-2 30 Jul 08:49:43 08:55:12 37° 297° (WNW) 09:00:10 435.800 - 435.900 CW/SSB, 435.910 FM
PCSat 30 Jul 08:51:54 08:56:46 32° 44° (NE) 09:01:36 145.825 MHz
Saudisat 1A 30 Jul 09:21:46 09:25:51 35° 317° (NW) 09:29:57 436.775 MHz
UKube-1 30 Jul 09:25:39 09:26:42 11° 88° (E) 09:27:44 145.840 MHz, 145.915 MHz
HO-68 30 Jul 09:48:22 09:54:53 36° 96° (E) 10:01:20 435.675 MHz FM
SO-67 30 Jul 09:50:17 09:52:13 14° 296° (WNW) 09:54:09 435.3500 MHz FM
Sapphire 30 Jul 10:01:43 10:07:11 85° 57° (ENE) 10:12:37 437.095 MHz 1200 baud AX-25 AFSK
Oscar 11 30 Jul 10:07:49 10:10:40 17° 91° (E) 10:13:30 145.825 FM, Beacon 2401.500 USB
FUNcube-1 30 Jul 10:34:01 10:35:25 11° 88° (E) 10:36:48 145.950 - 145.970 MHz USB
PCSat 30 Jul 10:35:10 10:40:26 52° 244° (WSW) 10:45:40 145.825 MHz
KITSAT 1 30 Jul 10:40:51 10:46:38 21° 348° (NNW) 10:52:25 435.175 FM
UKube-1 30 Jul 10:59:07 11:03:31 83° 285° (WNW) 11:07:51 145.840 MHz, 145.915 MHz
Saudisat 1A 30 Jul 11:05:26 11:06:44 11° 340° (NNW) 11:08:01 436.775 MHz
HO-68 30 Jul 11:35:56 11:42:47 51° 296° (WNW) 11:49:37 435.675 MHz FM
Oscar 11 30 Jul 11:42:56 11:47:10 53° 288° (WNW) 11:51:23 145.825 FM, Beacon 2401.500 USB
Sapphire 30 Jul 11:46:41 11:49:53 16° 256° (WSW) 11:53:04 437.095 MHz 1200 baud AX-25 AFSK
JAS-1B 30 Jul 11:55:59 11:59:21 12° 33° (NNE) 12:02:45 435.800 - 435.900 CW/SSB
FUNcube-1 30 Jul 12:08:09 12:12:20 73° 286° (WNW) 12:16:32 145.950 - 145.970 MHz USB
UKube-1 30 Jul 12:37:46 12:38:59 11° 304° (NW) 12:40:13 145.840 MHz, 145.915 MHz
KITSAT 1 30 Jul 12:39:14 12:45:24 23° 19° (NNE) 12:51:31 435.175 FM
SO-50 30 Jul 12:41:52 12:46:03 40° 119° (ESE) 12:50:19 436.795 FM
Oscar 19 30 Jul 12:58:08 13:02:24 28° 63° (ENE) 13:06:43 437.125 CW, 437.150 USB
AO-Echo 30 Jul 13:04:12 13:07:37 18° 58° (ENE) 13:11:02 ?
Oscar 16 30 Jul 13:25:59 13:30:53 49° 69° (ENE) 13:35:50 437.025 USB, Beacon 2401.1428
HO-68 30 Jul 13:26:01 13:28:54 13° 317° (NW) 13:31:47 435.675 MHz FM
RS-15 30 Jul 13:27:08 13:37:32 49° 112° (ESE) 13:47:46 29.354 - 29.394 USB, Beacon 29.352 USB
JAS-1B 30 Jul 13:38:43 13:46:57 37° 56° (NE) 13:55:39 435.800 - 435.900 CW/SSB
ITAMSAT 1 30 Jul 13:50:07 13:54:54 38° 66° (ENE) 13:59:42 435.822 SSB
AO-7 30 Jul 13:57:17 14:01:28 15° 37° (NE) 14:05:38 29.400 - 29.500 MHz
Uribyol 2 30 Jul 14:08:49 14:13:54 58° 70° (ENE) 14:19:00 436.500 FM
AO-27 30 Jul 14:09:22 14:14:27 56° 70° (ENE) 14:19:34 436.795 MHz FM
TMSAT-1 30 Jul 14:16:15 14:20:18 23° 60° (ENE) 14:24:20 436.925 FM
SO-50 30 Jul 14:22:37 14:26:42 33° 319° (NW) 14:30:52 436.795 FM
Saudisat 1A 30 Jul 14:27:15 14:29:59 16° 29° (NNE) 14:32:44 436.775 MHz
UOSAT-12 30 Jul 14:34:21 14:38:40 41° 119° (ESE) 14:43:04 437.025 FM, 437.400 FM
KITSAT 1 30 Jul 14:34:57 14:42:52 53° 45° (NE) 14:50:42 435.175 FM
Oscar 19 30 Jul 14:36:41 14:41:33 44° 262° (W) 14:46:28 437.125 CW, 437.150 USB
Gurwin Techsat 1B 30 Jul 14:40:22 14:45:24 45° 68° (ENE) 14:50:27 435.225 FM
AO-Echo 30 Jul 14:40:25 14:45:45 81° 256° (WSW) 14:51:06 ?
Uosat F 30 Jul 15:03:18 15:06:03 15° 56° (NE) 15:08:49 435.120 FM
Oscar 16 30 Jul 15:06:23 15:10:30 24° 267° (W) 15:14:39 437.025 USB, Beacon 2401.1428
JAS-1B 30 Jul 15:27:35 15:36:41 73° 258° (WSW) 15:46:39 435.800 - 435.900 CW/SSB
ITAMSAT 1 30 Jul 15:29:49 15:34:27 32° 264° (W) 15:39:07 435.822 SSB
RS-15 30 Jul 15:38:48 15:49:41 60° 317° (NW) 16:00:31 29.354 - 29.394 USB, Beacon 29.352 USB
AO-7 30 Jul 15:44:24 15:52:20 50° 60° (ENE) 16:00:17 29.400 - 29.500 MHz
Uribyol 2 30 Jul 15:49:53 15:53:45 21° 268° (W) 15:57:38 436.500 FM
AO-27 30 Jul 15:50:22 15:54:19 22° 268° (W) 15:58:18 436.795 MHz FM
TMSAT-1 30 Jul 15:54:35 15:59:49 60° 259° (W) 16:05:04 436.925 FM
Saudisat 1A 30 Jul 16:05:59 16:10:24 68° 51° (NE) 16:14:47 436.775 MHz
SO-50 30 Jul 16:07:18 16:08:42 11° 342° (NNW) 16:10:07 436.795 FM
UOSAT-12 30 Jul 16:14:39 16:18:54 34° 319° (NW) 16:23:14 437.025 FM, 437.400 FM
Gurwin Techsat 1B 30 Jul 16:21:04 16:25:33 27° 266° (W) 16:30:04 435.225 FM
AO-Echo 30 Jul 16:23:24 16:25:19 12° 274° (W) 16:27:14 ?
KITSAT 1 30 Jul 16:30:38 16:38:12 46° 247° (WSW) 16:45:44 435.175 FM
Uosat F 30 Jul 16:39:05 16:44:08 90° 257° (WSW) 16:49:13 435.120 FM
JAS-2 30 Jul 17:18:33 17:24:55 30° 61° (ENE) 17:30:52 435.800 - 435.900 CW/SSB, 435.910 FM
JAS-1B 30 Jul 17:22:56 17:28:56 19° 280° (W) 17:35:15 435.800 - 435.900 CW/SSB
OPAL 30 Jul 17:33:30 17:38:34 68° 105° (ESE) 17:43:41 ?
AO-7 30 Jul 17:37:20 17:45:13 44° 261° (W) 17:53:09 29.400 - 29.500 MHz
Saudisat 1A 30 Jul 17:46:43 17:49:30 17° 249° (WSW) 17:52:16 436.775 MHz
RS-15 30 Jul 17:55:20 18:04:48 32° 349° (NNW) 18:14:20 29.354 - 29.394 USB, Beacon 29.352 USB
UOSAT-12 30 Jul 17:58:44 18:00:29 12° 342° (NNW) 18:02:13 437.025 FM, 437.400 FM
Hamsat 30 Jul 17:58:59 18:02:57 44° 71° (ENE) 18:06:59 145.90 MHz
Uosat F 30 Jul 18:21:37 18:23:39 12° 273° (W) 18:25:40 435.120 FM
SO-67 30 Jul 18:52:28 18:55:18 24° 68° (ENE) 18:58:08 435.3500 MHz FM
JAS-2 30 Jul 19:01:47 19:09:31 69° 258° (WSW) 19:16:40 435.800 - 435.900 CW/SSB, 435.910 FM
OPAL 30 Jul 19:13:23 19:17:00 20° 303° (WNW) 19:20:38 ?
SO-50 30 Jul 19:30:31 19:33:57 20° 32° (NNE) 19:37:26 436.795 FM
Hamsat 30 Jul 19:36:13 19:39:10 19° 269° (W) 19:42:09 145.90 MHz
STRAND 1 30 Jul 19:59:30 20:04:33 56° 101° (E) 20:09:32 ?
RS-15 30 Jul 20:11:09 20:21:05 37° 23° (NNE) 20:31:12 29.354 - 29.394 USB, Beacon 29.352 USB
HO-68 30 Jul 20:20:04 20:26:32 38° 60° (ENE) 20:33:01 435.675 MHz FM
UKube-1 30 Jul 20:23:20 20:25:57 16° 60° (ENE) 20:28:34 145.840 MHz, 145.915 MHz
SO-67 30 Jul 20:25:28 20:28:19 24° 265° (W) 20:31:11 435.3500 MHz FM
JAS-2 30 Jul 20:51:51 20:55:35 14° 276° (W) 20:59:14 435.800 - 435.900 CW/SSB, 435.910 FM
Oscar 11 30 Jul 21:05:51 21:09:00 20° 63° (ENE) 21:12:10 145.825 FM, Beacon 2401.500 USB
SO-50 30 Jul 21:10:27 21:15:13 84° 53° (NE) 21:20:02 436.795 FM
UOSAT-12 30 Jul 21:21:31 21:24:56 19° 31° (NNE) 21:28:20 437.025 FM, 437.400 FM
FUNcube-1 30 Jul 21:33:13 21:35:40 15° 61° (ENE) 21:38:05 145.950 - 145.970 MHz USB
MaSat-1 30 Jul 21:39:16 21:43:27 67° 115° (ESE) 21:48:18 437.345 MHz
STRAND 1 30 Jul 21:39:27 21:43:23 23° 299° (WNW) 21:47:17 ?
UKube-1 30 Jul 21:57:20 22:01:40 66° 257° (WSW) 22:06:03 145.840 MHz, 145.915 MHz
HO-68 30 Jul 22:07:10 22:14:05 50° 260° (W) 22:21:02 435.675 MHz FM
RS-15 30 Jul 22:24:10 22:35:14 82° 52° (NE) 22:46:41 29.354 - 29.394 USB, Beacon 29.352 USB
Oscar 11 30 Jul 22:40:45 22:44:54 46° 261° (W) 22:49:04 145.825 FM, Beacon 2401.500 USB
SO-50 30 Jul 22:52:33 22:55:11 15° 250° (WSW) 22:57:49 436.795 FM
UOSAT-12 30 Jul 23:01:04 23:05:50 81° 52° (NE) 23:10:32 437.025 FM, 437.400 FM
FUNcube-1 30 Jul 23:07:22 23:11:37 63° 259° (WSW) 23:15:50 145.950 - 145.970 MHz USB
MaSat-1 30 Jul 23:17:52 23:21:21 21° 318° (NW) 23:25:10 437.345 MHz
PCSat 30 Jul 23:39:48 23:42:08 13° 102° (ESE) 23:44:28 145.825 MHz
ISS 30 Jul 23:55:34 23:58:47 45° 146° (SE) 00:02:01 145.800 FM
RS-15 31 Jul 00:37:23 00:46:29 31° 255° (WSW) 00:55:53 29.354 - 29.394 USB, Beacon 29.352 USB
UOSAT-12 31 Jul 00:42:41 00:45:22 15° 251° (WSW) 00:48:02 437.025 FM, 437.400 FM
Sapphire 31 Jul 00:46:29 00:51:33 43° 114° (ESE) 00:56:39 437.095 MHz 1200 baud AX-25 AFSK
PCSat 31 Jul 01:19:15 01:24:40 81° 121° (ESE) 01:30:07 145.825 MHz
ISS 31 Jul 01:32:16 01:35:31 46° 345° (NNW) 01:38:47 145.800 FM
Oscar 16 31 Jul 01:36:19 01:38:51 14° 88° (E) 01:41:22 437.025 USB, Beacon 2401.1428
Uribyol 2 31 Jul 02:19:53 02:23:02 16° 89° (E) 02:26:09 436.500 FM
AO-27 31 Jul 02:20:47 02:23:53 16° 89° (E) 02:26:57 436.795 MHz FM
Sapphire 31 Jul 02:30:05 02:35:04 37° 314° (NW) 02:40:06 437.095 MHz 1200 baud AX-25 AFSK
Oscar 19 31 Jul 02:44:57 02:50:01 52° 100° (E) 02:55:04 437.125 CW, 437.150 USB
AO-Echo 31 Jul 02:45:37 02:49:53 27° 93° (E) 02:54:00 ?
Gurwin Techsat 1B 31 Jul 02:55:05 02:57:50 14° 87° (E) 03:00:35 435.225 FM
PCSat 31 Jul 03:04:27 03:08:44 23° 322° (NW) 03:13:03 145.825 MHz
ISS 31 Jul 03:09:34 03:12:42 35° 5° (N) 03:15:50 145.800 FM
JAS-1B 31 Jul 03:11:35 03:20:12 39° 91° (E) 03:27:37 435.800 - 435.900 CW/SSB
Oscar 16 31 Jul 03:13:41 03:18:53 86° 285° (WNW) 03:24:04 437.025 USB, Beacon 2401.1428
OPAL 31 Jul 03:14:04 03:18:02 25° 60° (ENE) 03:22:03 ?
